Theta_e
304 304 304 304 304 304 305 305 305 304 304 298 295 297 290 288 284 296 301 304 300 290 282 287 285 285 288 292 291 292 290 289 290 289 292 290 294 292 290 290 289 290 289 290 288 285 282 283 281 282 285 286 290 288 291 291 290 291 286 288 288 301 285 283 280 283 284 289 290 291 292 292 289 289 286 286 285 284 282 277 280 282 283 282 280 278 281
304 303 304 304 304 304 304 305 305 304 304 300 299 293 289 290 288 292 301 304 299 289 281 281 282 286 289 290 289 292 291 290 289 289 291 291 291 290 291 291 292 289 293 290 288 289 280 285 284 282 285 286 291 291 290 292 289 290 286 286 293 283 281 281 278 279 281 285 286 288 290 290 285 283 286 287 286 286 285 285 284 282 284 285 282 277 283
304 304 303 303 304 304 304 304 305 304 304 302 295 290 293 291 291 293 295 301 296 286 288 286 284 286 286 287 287 289 291 293 292 291 289 294 292 292 289 292 292 290 292 290 290 291 288 282 285 285 287 286 290 291 290 292 289 292 294 304 293 286 281 283 277 274 273 275 278 279 279 284 285 287 287 287 288 285 286 282 282 279 281 284 282 282 289
304 303 303 303 304 304 304 304 304 304 304 301 294 290 290 289 281 286 288 292 292 291 295 291 288 286 286 285 288 290 288 291 293 293 292 297 296 293 292 291 291 289 291 288 289 289 291 288 284 284 284 286 290 290 291 291 291 298 306 301 293 284 285 284 281 279 277 279 279 282 284 284 284 287 288 288 288 288 287 282 280 281 280 282 284 290 290
303 303 303 303 303 304 304 304 304 304 304 302 295 293 289 288 280 281 281 288 289 288 291 289 290 285 290 283 288 286 287 289 291 295 290 297 297 295 292 290 289 289 289 287 287 289 290 291 288 286 285 286 289 290 291 291 295 305 305 300 290 285 284 285 284 284 285 284 285 290 287 286 285 286 286 287 288 288 287 283 283 283 285 281 288 293 290
303 303 303 303 303 303 304 304 304 304 304 304 300 292 293 283 284 288 288 284 281 283 284 289 288 289 289 286 290 285 285 287 284 292 296 297 299 289 289 291 292 293 292 291 285 288 286 287 287 292 290 289 289 289 290 290 297 304 296 298 291 285 282 285 288 289 291 292 291 292 291 290 289 290 288 287 289 287 287 285 284 288 282 283 289 293 292
303 303 303 303 304 304 304 304 304 304 303 304 299 289 293 294 291 291 295 286 286 285 287 291 288 286 288 286 288 286 286 285 288 289 290 294 293 296 283 288 292 292 294 291 287 287 282 284 287 290 289 290 287 286 289 289 293 297 292 293 290 289 282 286 290 290 292 292 290 291 292 289 290 289 289 289 288 286 286 286 286 288 283 287 291 292 292
303 303 303 304 304 304 304 304 304 305 304 302 297 295 292 290 287 285 292 291 290 290 289 288 288 285 291 285 287 288 288 286 289 292 291 284 289 297 290 291 292 292 292 291 287 292 289 289 286 291 291 287 287 285 285 285 291 294 292 292 290 290 284 293 290 287 289 292 291 291 292 290 288 287 288 289 288 288 287 287 288 291 290 290 291 291 291
303 303 303 304 304 304 304 305 305 304 303 296 296 295 297 298 299 296 291 288 287 288 288 288 287 284 284 285 286 289 288 288 291 290 294 291 289 293 290 292 291 292 292 292 292 294 294 293 293 294 291 288 294 288 290 293 288 291 291 291 291 292 285 289 286 285 284 291 289 289 290 290 288 285 287 287 286 287 288 287 289 289 288 290 291 289 288
303 303 303 304 304 305 305 305 305 304 303 297 296 294 302 302 304 302 296 287 291 286 287 286 286 281 282 286 286 289 288 289 290 284 289 294 294 294 294 292 290 289 289 290 292 295 296 297 298 297 296 298 297 297 297 294 290 289 291 290 287 289 289 287 284 286 281 288 287 287 285 287 284 283 285 286 286 287 287 287 290 292 294 289 287 290 296
303 303 303 304 304 304 305 305 306 305 302 295 293 293 296 296 295 297 297 288 285 285 285 284 286 288 289 293 290 290 289 290 290 286 285 293 294 297 296 292 289 288 289 294 298 300 300 300 299 300 299 297 298 297 298 298 297 293 289 287 288 291 292 285 283 285 284 287 283 285 284 278 278 286 290 290 289 286 288 288 289 290 290 289 292 294 297
303 303 303 303 304 304 305 305 306 306 303 300 299 296 297 299 298 298 290 285 286 290 289 287 289 291 290 291 291 289 289 289 289 291 288 290 294 296 295 293 291 285 294 299 301 300 301 301 299 297 296 296 297 298 298 296 296 297 294 291 288 289 288 283 283 285 284 281 282 281 279 278 287 291 290 291 290 289 289 289 288 288 289 290 292 295 296
302 303 303 303 304 304 305 305 306 306 306 303 301 296 298 302 297 295 294 290 286 289 287 290 295 293 293 292 291 291 292 292 293 293 293 292 292 294 295 293 292 294 302 301 297 296 294 292 289 289 292 293 294 295 295 296 295 296 295 294 292 288 288 282 284 280 281 278 277 278 274 286 291 290 290 292 292 291 293 289 288 287 287 290 292 295 297
302 302 303 303 303 304 304 305 306 306 307 306 301 300 301 301 296 296 294 288 287 290 292 291 293 293 294 294 293 292 291 290 291 291 290 292 292 293 296 298 299 300 301 300 294 290 288 285 285 282 287 287 288 288 292 295 295 294 293 293 294 294 289 287 284 283 282 280 282 283 287 287 287 286 288 288 287 290 288 285 287 287 287 289 293 295 297
302 302 302 302 303 303 304 305 305 306 306 307 304 302 301 302 300 297 298 295 287 290 291 286 290 293 294 294 294 289 286 286 287 287 293 295 293 295 297 299 301 300 300 299 291 287 286 283 282 282 284 283 280 282 289 289 292 294 293 292 292 293 291 288 287 281 282 282 280 281 278 277 283 287 290 292 291 291 289 288 285 287 289 290 296 295 296
301 302 302 302 302 303 303 304 305 305 306 307 304 302 302 302 301 300 297 294 290 285 288 295 297 295 294 294 295 291 287 284 285 285 286 288 292 296 299 301 301 300 299 295 289 285 282 282 281 279 280 280 285 285 281 288 287 293 293 293 293 292 291 288 287 282 280 278 279 278 277 280 287 291 292 293 294 292 290 287 284 287 292 294 296 295 295
301 301 301 302 302 303 303 304 304 305 306 306 303 302 300 303 301 299 298 297 294 287 295 297 296 296 295 293 293 290 290 286 287 285 283 284 290 295 297 299 298 300 297 289 287 282 282 282 279 281 283 287 283 282 287 286 283 284 290 289 290 288 283 283 284 280 277 278 276 276 277 281 286 289 292 294 294 293 289 280 281 289 292 296 296 295 294
301 301 301 301 302 302 303 303 304 305 305 306 304 301 300 303 303 303 299 297 291 290 295 298 297 293 291 292 293 297 298 293 291 287 287 288 289 292 295 296 295 297 298 290 286 282 280 279 280 279 280 288 290 289 281 285 282 281 284 283 281 282 283 283 283 280 278 279 273 273 278 284 286 289 293 293 294 291 283 280 281 292 295 297 297 295 295
300 301 301 301 302 302 303 303 304 304 305 305 304 302 301 303 304 303 301 298 296 288 296 301 302 299 300 303 298 299 299 296 293 288 283 284 291 294 296 295 297 290 292 287 284 282 282 284 286 282 282 285 290 284 286 285 283 286 285 283 284 282 281 283 282 281 279 271 278 278 276 283 288 292 294 294 291 283 283 285 289 295 296 297 297 295 295
300 300 301 301 301 302 302 303 303 304 305 305 304 298 301 304 305 304 300 296 297 295 299 300 301 299 302 298 295 295 295 293 292 288 285 286 291 292 287 286 291 291 289 285 283 285 283 284 283 285 282 283 285 289 285 286 290 285 284 284 282 285 283 282 281 279 278 273 274 275 277 285 295 295 293 294 285 284 285 289 293 298 297 297 297 296 295
300 300 300 301 301 302 302 303 303 304 305 305 304 299 297 301 303 305 306 303 298 292 293 300 302 301 302 301 302 302 298 295 293 291 293 293 293 287 283 282 286 288 287 285 285 285 282 284 285 283 285 285 287 287 285 284 289 291 290 286 285 287 283 281 280 282 280 275 277 278 283 285 296 297 289 292 290 290 292 294 293 294 297 297 296 295 296
300 300 300 301 302 302 302 303 303 304 304 305 304 301 296 300 303 306 307 305 298 293 295 300 303 303 305 306 306 306 304 302 304 303 296 291 291 294 291 291 291 293 293 289 287 287 287 282 285 284 283 285 286 283 283 282 281 284 289 289 284 285 283 284 286 284 279 279 280 281 287 290 291 291 290 290 292 294 296 296 296 295 295 296 296 295 293
299 300 300 301 301 302 302 303 303 304 304 305 303 299 296 298 299 304 305 301 303 303 304 304 305 303 303 303 307 308 308 309 308 305 300 296 287 288 294 292 291 296 297 293 289 286 287 286 285 285 285 285 286 284 284 280 279 285 285 290 287 291 290 288 287 285 288 288 288 289 289 289 290 291 291 291 292 294 295 296 295 296 297 297 296 294 293
299 300 300 301 301 302 302 303 303 304 304 304 303 300 298 299 299 299 302 304 298 293 295 296 295 291 294 297 301 301 304 305 307 309 307 302 290 286 290 296 299 297 294 294 293 294 287 285 288 286 284 286 288 282 283 282 281 285 285 286 286 290 290 286 284 288 286 283 287 287 289 289 290 290 291 292 292 293 295 295 296 295 295 295 294 293 293
299 300 300 300 301 301 302 303 303 303 304 304 304 303 302 299 301 300 301 292 286 287 287 289 289 299 301 304 302 297 300 302 304 309 309 304 298 293 293 299 300 297 295 296 292 290 285 286 287 285 284 289 292 285 286 285 286 287 283 284 285 287 290 287 285 282 280 282 288 290 289 289 290 290 291 290 292 293 294 295 295 295 295 295 294 294 294
299 299 300 300 300 301 302 303 303 303 304 304 304 300 297 296 298 299 299 299 295 291 290 284 291 299 302 302 300 300 300 302 302 302 304 304 303 301 300 301 300 299 297 294 292 288 284 285 282 282 285 288 291 285 282 284 287 285 285 284 287 288 292 283 285 283 286 288 289 289 289 289 290 290 291 292 293 293 293 294 294 294 294 293 294 295 295
299 299 300 300 300 301 302 302 303 303 303 304 303 299 298 298 300 301 297 295 293 284 285 286 288 294 299 298 302 300 299 301 300 299 299 299 299 299 299 298 297 295 297 293 290 284 284 284 283 286 285 290 288 286 287 288 285 283 284 289 290 289 285 287 287 284 283 285 287 290 288 286 287 289 290 292 292 293 293 293 293 294 293 293 293 293 295
299 299 300 300 301 301 302 302 302 303 303 304 303 299 298 297 298 302 301 298 295 286 285 282 287 293 297 295 299 298 298 300 298 298 296 297 297 297 296 294 292 293 291 293 292 285 281 285 288 285 284 287 285 287 286 286 284 284 284 287 288 286 286 287 284 285 285 288 291 289 289 289 289 291 291 292 293 293 293 293 293 293 294 294 294 293 294
299 299 300 300 301 301 302 302 302 302 303 303 299 296 297 299 300 302 303 301 297 293 287 288 290 289 288 293 297 296 296 299 298 297 296 296 296 295 294 293 292 289 288 287 284 283 283 287 284 287 288 291 288 286 283 284 279 282 284 288 289 288 291 293 292 290 290 292 293 291 291 290 291 291 292 292 293 294 292 292 293 293 293 294 294 294 294
299 299 300 300 301 301 301 302 302 302 303 300 294 286 286 294 300 299 300 301 298 296 290 287 284 285 290 293 294 293 295 296 296 296 295 294 295 294 293 293 291 291 290 286 284 285 286 286 283 284 290 291 288 282 279 280 281 285 286 289 290 291 292 292 294 293 291 293 293 291 292 293 293 293 294 294 295 294 293 292 292 292 292 293 293 294 295
299 300 300 300 301 301 301 302 302 303 302 298 292 283 284 285 292 302 302 299 299 296 288 287 288 287 286 291 293 293 293 294 296 293 294 294 294 293 294 292 291 290 285 283 284 286 283 284 283 288 288 290 283 279 282 281 282 283 288 289 288 290 291 292 291 292 294 293 293 294 294 293 293 293 292 292 293 294 293 293 294 295 294 294 294 294 294
299 299 300 300 301 301 301 302 302 302 301 297 289 287 287 290 294 298 300 301 298 297 292 288 283 282 283 284 289 294 295 297 297 294 291 294 295 293 291 293 292 290 290 285 285 283 285 284 283 286 287 290 285 278 279 280 282 284 287 288 289 290 291 291 292 293 294 295 294 292 291 290 293 292 290 292 293 294 293 293 293 294 295 294 294 295 295
299 300 300 300 301 301 302 302 303 302 298 300 303 304 304 304 304 304 304 298 298 291 288 285 283 283 281 285 291 293 296 293 292 290 292 291 296 290 289 289 287 287 296 288 286 285 285 281 280 283 289 285 280 278 278 277 280 284 287 289 288 290 290 291 292 293 294 295 296 291 289 290 290 290 292 292 293 293 293 293 293 294 294 294 294 293 292
299 300 300 300 301 301 302 302 303 303 302 297 291 290 297 304 302 304 298 296 291 287 286 287 283 282 284 287 288 290 293 289 288 286 286 288 290 289 286 286 287 287 289 287 285 286 285 282 284 283 282 283 278 279 281 283 286 287 288 289 289 289 291 291 291 292 291 290 291 292 293 292 292 292 292 292 292 292 294 293 293 292 293 293 293 292 291
299 300 300 300 300 301 302 302 298 293 287 288 293 294 297 304 304 306 302 296 288 285 286 286 283 282 280 280 276 283 291 290 289 284 285 287 289 291 287 286 282 283 287 287 281 281 281 285 285 282 284 280 280 281 278 283 286 288 288 288 289 291 291 291 290 290 289 291 293 292 292 293 292 291 291 291 291 292 292 292 293 292 291 291 290 288 289
299 299 300 300 301 301 298 299 295 292 289 288 289 298 304 305 305 302 299 299 292 282 281 280 282 282 280 279 279 285 290 290 287 287 287 285 286 288 284 283 283 287 286 282 283 278 283 288 284 283 276 279 280 281 283 287 288 288 288 290 291 293 292 292 291 289 290 292 292 292 292 293 292 291 291 291 291 291 292 291 291 292 291 289 288 287 288
299 299 300 300 297 295 289 285 292 292 292 297 300 303 304 304 302 300 297 298 298 297 289 279 283 282 283 281 279 281 286 282 283 283 280 284 284 281 281 282 283 283 280 280 279 282 287 287 280 277 278 280 280 282 285 290 290 290 289 290 291 289 291 291 292 292 291 291 292 292 292 291 291 291 291 291 291 291 291 291 290 290 289 288 287 287 288
298 298 295 292 288 284 284 287 292 298 301 301 302 295 290 292 289 284 286 288 287 297 285 286 282 283 285 286 284 288 288 282 282 285 282 280 283 284 280 283 283 283 280 278 281 288 279 278 278 280 278 280 284 286 287 290 289 290 290 290 289 291 292 293 293 292 291 289 288 289 290 290 290 290 291 290 290 290 290 290 289 290 289 288 288 288 287
295 291 289 288 287 284 284 289 297 300 297 297 294 290 287 283 284 285 284 284 284 287 283 286 284 284 285 284 284 287 290 285 278 279 281 282 283 280 282 282 281 279 277 278 281 283 280 279 274 275 277 279 284 288 289 288 289 289 289 290 292 293 294 295 295 294 292 292 291 292 292 291 290 289 290 290 290 290 289 289 288 289 289 288 288 287 288
288 286 283 283 283 286 293 295 298 295 294 289 284 284 284 283 283 282 281 283 283 280 281 284 285 285 287 289 285 284 286 286 283 278 277 281 286 282 281 280 280 278 276 273 276 278 278 277 274 276 275 277 283 286 288 288 289 289 289 291 292 293 294 295 295 295 295 294 295 294 293 294 293 292 291 290 290 289 288 289 289 289 289 288 288 288 288
286 285 282 280 286 289 291 293 294 291 286 285 285 282 280 281 282 283 282 278 279 281 283 282 282 285 286 284 284 282 285 289 284 283 279 280 283 283 278 278 281 278 274 273 277 278 274 275 273 276 279 279 284 288 288 288 289 289 289 292 293 293 293 293 294 293 294 293 293 293 293 294 293 292 292 291 291 289 289 289 288 288 288 288 287 288 289
286 288 288 291 293 293 293 291 288 286 284 285 282 279 280 280 281 282 281 279 278 276 281 285 283 282 283 286 284 284 287 290 284 279 282 282 284 281 278 277 278 275 273 274 277 276 274 274 271 272 278 281 286 287 289 289 288 289 290 290 292 293 293 294 293 293 295 294 294 293 293 294 294 293 292 291 291 290 289 289 289 288 289 289 289 289 289
297 296 294 291 290 287 287 286 284 283 281 279 276 278 278 279 279 280 278 279 279 283 282 287 286 287 290 288 288 289 286 289 288 283 281 281 282 278 276 275 275 275 277 278 275 272 273 271 269 276 280 283 288 289 289 290 289 290 290 291 292 294 295 294 294 294 294 295 294 294 294 294 293 292 292 292 291 290 290 290 289 289 289 289 289 289 289
293 294 292 287 286 285 284 281 284 284 280 278 277 275 276 277 279 278 279 278 278 282 282 287 283 285 284 283 287 285 284 287 285 281 281 279 280 276 275 275 275 276 277 275 274 274 271 268 275 276 279 285 289 289 289 289 289 289 289 290 291 293 294 293 292 293 292 292 294 295 295 294 292 291 291 291 291 290 290 290 290 290 290 290 289 289 289
285 284 284 283 281 283 281 275 281 280 276 277 279 277 277 276 277 277 279 279 283 285 285 285 285 286 283 282 283 284 284 283 283 282 280 279 277 276 275 275 274 274 275 273 270 270 273 273 277 280 283 287 289 290 290 290 290 291 291 289 290 291 293 293 292 292 292 292 292 293 293 292 291 290 290 290 291 291 290 289 289 290 290 290 290 289 288
285 283 279 277 276 278 278 275 277 277 278 280 280 278 279 280 280 281 284 284 284 285 285 286 286 286 282 281 284 284 280 279 282 280 279 277 275 277 277 278 276 274 272 269 270 269 271 275 277 283 287 289 290 290 290 290 291 291 292 291 291 290 292 292 292 292 292 291 291 292 291 291 291 290 289 289 290 290 291 290 290 291 291 290 290 289 289
284 285 284 279 276 277 280 277 276 277 281 281 279 278 282 284 284 285 284 285 285 286 286 285 287 286 285 282 284 282 280 279 280 280 278 279 277 278 279 279 276 271 271 269 268 265 268 275 277 282 288 289 289 290 291 290 291 291 292 292 291 291 291 291 292 292 291 291 291 291 291 291 290 290 289 288 289 290 290 290 291 292 292 292 291 290 289
283 284 283 277 274 277 278 277 279 279 279 280 280 281 282 282 282 284 286 285 286 285 286 285 282 282 285 282 282 280 280 279 280 280 279 279 279 274 271 271 270 270 270 271 268 271 275 276 280 284 289 291 291 291 290 290 290 291 292 292 291 291 291 291 291 291 291 291 291 291 291 290 290 289 289 289 288 288 290 291 291 292 293 292 290 290 290
284 282 280 277 279 281 278 277 280 280 280 280 281 281 282 283 282 284 286 285 285 287 287 285 281 283 283 282 281 282 282 281 278 278 280 277 275 272 271 269 268 270 271 273 274 276 278 282 282 286 289 290 291 292 292 292 292 292 292 292 292 292 291 291 292 291 291 291 291 291 290 290 290 290 289 289 289 288 289 290 291 291 291 291 290 290 290
284 280 281 281 279 278 279 278 278 277 279 281 280 280 280 280 282 285 285 286 287 287 286 286 284 284 283 283 280 277 280 280 279 279 275 275 272 273 271 270 268 271 269 273 276 277 279 280 284 287 289 290 290 292 292 292 291 292 292 293 293 292 292 292 291 291 291 291 291 291 290 289 289 290 289 289 290 289 289 290 290 291 290 291 291 290 290
282 282 279 279 280 276 279 276 275 276 279 279 279 280 280 281 282 284 286 287 287 285 284 285 283 282 282 278 278 277 279 281 280 278 275 274 275 273 273 272 270 273 277 279 280 281 281 283 286 287 289 290 291 292 293 293 293 293 293 293 292 292 292 292 292 291 291 291 291 288 289 289 290 290 291 291 290 289 289 290 290 290 290 290 290 291 290
279 278 278 278 280 280 280 279 280 280 280 281 280 280 282 283 283 286 287 286 284 283 282 282 284 281 278 277 277 280 283 279 277 277 277 276 276 274 271 270 276 280 281 281 283 284 282 284 288 289 291 291 291 292 293 293 293 293 292 292 292 292 291 292 292 292 291 290 291 290 290 290 289 290 290 290 289 289 289 289 289 289 290 290 290 291 291
Wind_Speed
17 17 16 16 15 14 14 15 13 10 10 2 3 1 2 3 0 3 3 2 1 2 2 1 0 1 3 4 6 6 8 8 10 11 9 6 1 2 0 1 1 2 1 0 0 4 3 7 6 1 3 3 8 5 11 8 9 10 3 4 4 5 1 1 4 4 6 7 4 3 2 7 1 1 3 7 6 7 7 3 6 7 3 3 1 1 2
17 17 16 15 15 13 12 13 13 12 9 2 2 1 2 1 1 2 1 1 4 1 1 0 1 3 4 3 7 7 8 10 11 6 7 1 1 1 1 3 2 1 1 1 1 2 1 3 8 5 2 3 9 9 9 11 5 8 5 7 3 3 2 4 1 0 1 1 2 1 1 1 3 4 3 4 4 5 3 6 2 2 6 6 8 7 3
17 17 17 17 16 14 12 11 10 8 7 4 1 1 1 0 1 0 2 3 3 0 1 3 2 3 6 5 7 7 5 7 11 8 6 3 1 1 1 2 2 2 1 2 2 2 4 1 6 4 5 5 2 9 8 9 5 5 5 7 7 5 3 4 3 5 6 7 9 8 5 8 2 0 4 3 8 7 5 2 1 3 1 3 2 2 2
17 17 16 16 16 15 13 11 9 8 7 3 1 0 0 1 2 2 2 1 1 2 2 2 2 4 4 4 5 5 4 5 6 5 2 2 1 1 2 3 2 2 1 1 1 1 1 2 3 4 4 5 1 6 10 9 5 6 9 7 8 3 2 4 7 6 6 8 6 4 6 2 4 2 7 4 4 6 6 5 5 6 3 5 2 9 10
16 16 17 17 16 15 13 12 10 7 8 1 1 1 1 1 2 2 0 1 1 4 2 3 2 3 2 3 4 5 5 6 7 4 1 3 2 2 1 2 3 2 3 1 1 1 1 2 3 1 5 5 2 3 12 9 10 11 7 10 6 3 3 4 6 5 6 4 5 5 5 6 2 6 6 3 7 6 8 7 8 6 9 5 2 10 17
17 17 17 17 16 14 14 13 10 8 8 7 1 1 1 2 1 1 3 2 2 1 4 6 7 8 4 4 2 4 6 5 2 5 2 2 1 2 5 1 1 3 1 0 2 4 2 3 0 1 1 1 3 1 3 7 10 11 4 7 5 5 5 3 4 0 2 1 3 3 5 3 3 3 2 4 2 4 10 7 4 8 5 8 11 15 14
17 18 18 17 16 14 13 11 11 7 7 4 1 1 1 1 1 1 1 0 1 3 3 2 5 6 6 2 2 3 4 4 1 1 3 4 3 2 1 5 6 6 4 1 0 1 2 3 2 0 1 0 1 2 0 4 6 10 5 6 2 5 2 3 3 3 3 5 5 5 9 3 5 4 3 1 4 4 3 2 1 6 3 5 17 17 11
19 18 18 18 17 15 14 13 11 8 8 2 2 3 0 0 2 1 1 1 3 3 3 2 2 4 5 3 4 3 2 4 5 3 1 2 3 0 0 6 7 8 5 1 2 0 2 2 1 0 1 1 0 1 3 1 3 8 6 5 2 5 3 5 4 4 2 5 6 1 6 9 7 3 4 4 4 8 4 4 4 9 9 6 13 10 4
20 19 19 19 18 16 14 13 10 7 4 2 2 2 2 2 1 1 1 2 4 2 2 3 1 2 1 2 4 1 2 1 3 5 3 5 2 1 2 4 9 4 3 2 1 3 2 3 5 4 2 2 1 2 1 2 4 8 4 5 1 4 1 3 3 5 1 2 3 1 6 10 10 3 5 5 2 5 2 5 3 6 9 11 13 9 4
20 20 20 20 19 17 16 13 9 5 3 1 2 3 2 3 2 1 1 1 3 2 3 3 1 1 2 2 2 0 3 3 4 4 4 3 5 3 3 3 4 7 5 5 2 3 4 5 5 3 1 1 4 3 1 2 9 8 5 1 6 4 6 3 2 7 2 2 1 1 3 5 2 1 2 2 2 0 2 1 2 2 16 14 11 12 12
20 20 20 20 20 18 16 15 12 5 2 1 0 3 3 2 3 2 1 1 3 0 2 2 1 2 1 2 2 2 3 4 1 2 3 2 2 0 1 3 3 6 4 5 2 3 3 3 3 1 2 2 9 2 3 12 8 2 9 3 2 5 11 5 1 6 5 2 4 2 2 4 5 2 2 3 1 3 5 2 2 4 2 4 1 4 13
20 21 20 20 19 18 17 15 13 8 4 3 3 2 3 3 4 3 0 1 3 2 0 3 3 3 3 5 2 3 5 6 4 3 4 3 7 7 6 4 2 2 3 3 1 1 2 1 1 3 1 1 2 8 15 15 10 6 2 8 5 7 6 5 2 7 6 1 1 2 5 5 1 4 4 4 3 7 9 5 4 3 4 1 4 14 20
21 21 21 20 19 19 19 17 13 13 2 3 3 4 2 1 2 3 2 1 3 2 4 4 4 6 7 7 4 6 8 8 5 6 5 4 5 3 3 3 4 6 2 3 5 4 2 1 1 2 3 7 6 7 14 13 12 10 8 4 10 7 9 5 5 2 3 3 1 4 4 3 2 3 3 3 6 5 9 5 2 1 2 3 7 9 11
22 22 22 21 20 18 18 17 16 13 11 1 4 4 2 1 2 2 1 1 4 2 4 7 6 5 4 5 4 6 3 4 5 3 3 5 6 8 7 3 6 2 3 1 5 3 3 3 1 3 4 7 4 6 6 2 5 10 10 8 3 13 7 7 4 1 5 3 2 1 3 5 1 1 2 6 5 9 7 6 7 2 1 2 10 11 13
23 23 22 22 21 20 18 18 16 15 12 9 4 4 4 2 2 2 3 2 3 5 2 2 4 6 7 7 1 2 2 3 5 1 4 1 3 6 7 6 2 3 2 1 2 4 2 2 3 2 3 3 1 1 4 3 4 3 5 4 6 3 9 6 8 1 4 6 4 2 3 2 6 9 3 5 2 3 3 7 2 3 3 2 11 15 15
23 23 23 23 22 21 20 18 17 14 14 10 3 4 3 3 3 2 3 2 2 4 3 6 2 2 5 5 2 1 2 2 2 2 4 2 3 5 4 5 4 1 1 5 2 3 1 2 2 3 1 2 0 1 2 4 3 4 3 5 9 9 10 6 7 6 4 2 6 5 5 7 7 10 6 6 4 4 3 3 4 3 7 7 10 14 13
23 23 23 23 23 22 21 20 18 15 12 10 3 2 3 5 5 5 3 2 2 5 7 6 3 2 4 6 2 2 1 1 1 1 2 3 2 3 7 4 1 1 3 2 3 2 3 4 2 3 0 1 2 3 1 2 3 4 7 7 10 9 5 5 7 3 1 6 4 3 3 1 1 3 3 5 4 1 3 0 7 8 10 13 15 17 18
23 23 23 23 23 22 22 21 20 18 14 10 4 3 3 3 6 4 2 3 2 4 4 2 2 1 3 1 2 2 1 2 1 1 1 4 3 3 2 3 2 1 2 1 1 4 2 2 2 2 2 1 1 2 2 2 0 2 2 3 1 4 3 5 6 5 3 5 1 2 3 4 3 4 4 4 4 3 3 9 3 12 14 15 16 18 18
23 23 23 23 22 22 22 22 21 20 18 14 5 5 5 5 5 6 2 2 2 5 7 3 4 6 4 1 3 2 0 1 2 1 4 3 0 2 2 2 0 1 5 2 3 2 2 0 0 2 3 1 1 3 2 3 3 1 1 0 1 1 3 1 3 4 4 2 4 4 3 5 3 1 7 5 5 5 9 5 1 12 14 12 15 17 15
23 23 23 23 22 22 22 22 22 21 20 18 9 5 7 2 5 8 6 3 2 6 12 8 4 7 2 3 4 2 1 5 0 2 1 1 4 4 2 1 2 2 1 4 2 0 3 2 1 1 2 1 1 3 3 1 1 4 2 1 2 5 4 3 4 2 3 2 3 2 1 1 7 9 3 1 3 5 4 1 2 12 13 14 12 13 13
23 23 22 22 22 22 22 22 22 21 19 18 10 6 6 0 4 6 6 4 3 6 8 3 1 6 4 9 9 8 4 4 3 2 6 6 2 3 1 2 2 1 1 1 2 1 3 1 1 1 1 4 0 1 4 3 1 2 1 2 1 1 3 1 2 4 5 3 3 4 4 2 8 12 10 6 4 2 5 7 8 3 9 10 11 9 10
23 22 22 21 21 21 21 20 20 20 19 17 13 4 4 3 1 2 5 5 6 6 7 7 3 11 13 12 12 10 12 9 9 11 6 2 2 2 1 1 2 1 1 2 2 1 1 2 1 2 2 0 2 1 1 4 4 2 1 2 0 3 1 5 5 3 4 5 5 2 2 4 4 2 1 2 2 5 7 7 14 13 7 5 10 11 9
23 23 22 22 21 22 22 21 20 19 18 17 10 1 6 6 4 1 2 5 5 6 8 10 9 8 7 6 11 13 12 11 4 4 4 1 3 1 1 0 2 1 0 1 1 3 2 5 2 4 3 1 6 2 1 1 2 1 3 1 1 1 1 1 5 0 1 0 2 1 2 2 1 3 2 2 4 3 4 9 9 7 11 11 12 10 12
23 23 23 23 21 21 21 20 20 19 18 16 10 6 7 4 4 3 2 3 1 6 5 1 3 6 4 10 10 1 5 5 5 5 4 5 0 4 3 3 2 1 1 2 3 1 2 2 1 2 1 2 4 3 5 1 3 3 2 1 2 1 0 1 2 1 3 1 1 2 0 1 1 4 4 4 3 2 4 6 8 9 7 8 9 12 11
23 23 23 23 23 22 21 20 20 19 18 18 13 6 7 6 4 5 3 1 2 1 1 8 4 7 4 7 7 4 1 1 3 3 1 1 2 2 3 2 2 1 4 3 1 4 2 1 0 1 2 2 4 2 1 4 1 2 3 2 1 2 2 5 0 3 1 1 0 0 1 1 0 0 5 4 4 5 3 4 6 9 7 10 12 13 13
24 24 23 24 24 23 22 21 21 19 17 18 15 7 4 6 1 3 1 1 1 1 1 3 8 7 3 8 5 4 4 2 2 5 2 2 2 4 4 3 0 2 1 3 2 3 3 3 3 1 4 1 0 2 3 3 2 1 4 6 6 1 2 2 3 3 0 0 1 1 3 3 3 3 2 2 6 9 8 9 10 11 13 11 9 10 12
25 24 24 24 24 23 23 22 22 22 19 17 11 6 7 6 5 7 6 4 0 2 2 4 6 9 6 7 6 3 2 3 4 4 3 3 4 4 3 1 2 2 2 2 3 4 4 2 3 1 1 0 2 2 2 1 2 3 2 1 0 2 2 2 4 4 1 7 7 8 7 4 2 1 4 5 4 9 10 9 10 12 14 13 13 10 9
24 24 24 24 24 23 23 23 22 21 22 22 12 7 5 5 5 7 4 2 0 1 3 4 6 8 6 3 4 6 7 3 3 4 4 5 5 5 5 3 2 2 3 1 1 3 2 4 1 1 0 0 2 2 1 1 3 3 2 1 1 1 4 5 6 8 7 4 5 2 3 3 2 6 4 4 6 10 12 11 11 10 11 13 15 14 13
24 24 24 24 23 23 23 22 21 19 22 18 9 6 0 5 5 5 6 3 2 1 2 5 4 3 2 3 5 6 4 4 4 4 4 5 6 5 5 5 4 3 3 4 4 3 2 0 1 1 1 1 5 1 1 1 1 2 2 1 1 3 5 6 5 5 1 3 8 4 3 6 5 5 6 6 5 9 9 7 8 11 11 11 12 13 15
24 24 24 24 24 23 23 22 20 16 16 8 5 3 1 2 2 4 2 0 1 1 1 2 3 3 3 2 3 2 3 3 4 4 5 4 5 5 4 4 3 2 3 2 2 3 0 1 1 1 2 2 1 1 2 1 1 2 2 1 3 2 2 2 3 1 1 2 4 2 5 7 7 7 6 6 6 9 11 9 10 9 8 9 12 10 10
25 25 25 25 24 23 23 21 19 15 10 4 1 1 1 1 1 2 2 4 4 1 1 1 5 4 4 2 0 4 5 3 2 3 3 2 0 1 2 1 1 2 3 3 3 0 1 2 1 2 2 3 3 2 3 3 0 1 1 1 3 1 3 2 1 3 7 8 7 6 7 9 7 8 5 5 5 7 7 6 6 9 9 10 10 10 10
26 26 26 26 25 24 23 22 18 12 5 2 2 3 2 3 1 1 3 6 3 1 0 2 4 4 2 4 2 1 2 2 1 2 1 3 2 3 3 5 1 2 3 2 1 1 2 0 1 2 2 2 5 3 3 3 3 2 2 4 3 0 0 4 5 5 6 12 14 11 8 3 7 11 8 6 6 7 10 9 8 9 11 9 8 9 9
26 27 27 26 26 25 23 21 18 9 6 8 12 16 20 23 24 16 7 1 1 2 2 1 2 1 1 4 6 4 0 1 2 3 2 1 1 2 2 4 3 3 2 4 2 1 1 1 0 3 2 2 2 1 3 2 2 2 2 2 1 1 3 3 5 6 9 8 10 12 9 11 5 2 9 8 8 8 9 10 8 9 10 11 11 10 9
27 27 28 27 25 25 22 20 19 14 7 2 4 3 2 3 4 3 2 2 1 0 1 0 1 1 5 4 3 5 1 1 1 1 0 2 0 1 1 2 4 2 5 3 1 1 1 2 3 1 3 4 2 2 0 1 2 1 1 2 2 4 4 5 4 5 2 2 4 3 9 6 7 8 8 8 6 5 8 10 10 11 10 11 11 10 10
27 28 28 27 25 22 21 15 5 0 2 2 3 4 0 8 8 3 4 1 1 1 1 1 1 1 3 4 1 5 1 1 1 0 1 2 0 0 0 2 4 4 2 2 4 2 1 0 1 2 0 2 2 0 3 4 3 1 2 4 3 6 6 6 1 1 2 4 8 9 10 12 12 9 9 7 8 8 10 10 11 11 10 9 9 8 9
28 29 27 26 25 14 3 1 1 0 0 1 4 7 18 18 10 5 5 3 1 2 1 2 0 1 2 1 2 3 1 1 1 1 0 1 2 2 3 2 2 0 0 3 0 2 1 0 1 1 1 1 3 3 5 5 5 4 5 6 8 8 7 10 9 4 4 5 9 10 10 10 12 10 8 8 9 7 9 10 8 10 10 9 8 8 8
28 28 28 20 6 2 1 1 1 2 0 4 14 20 22 10 0 2 2 1 1 0 1 1 0 4 5 3 1 5 2 1 4 2 4 3 1 2 3 1 1 2 2 3 3 3 1 1 4 1 0 1 2 3 5 6 9 9 6 6 5 1 5 5 7 10 10 8 10 10 9 8 8 8 9 8 8 7 9 11 10 12 13 12 9 8 9
28 23 6 2 1 1 1 1 0 6 15 17 10 4 3 4 1 1 1 1 2 2 1 1 3 3 0 1 3 3 1 2 2 0 1 0 0 1 0 1 0 1 0 1 1 0 1 4 1 0 2 4 5 5 4 4 4 2 4 5 4 4 5 8 8 11 11 7 5 6 6 7 7 6 10 8 7 8 7 7 6 6 7 7 7 8 8
16 4 3 3 1 1 1 1 7 19 12 5 1 0 1 1 1 0 1 0 1 1 1 3 5 3 4 3 5 3 1 1 1 3 0 1 1 2 1 0 2 3 1 1 3 3 1 2 2 3 3 3 3 1 1 2 1 2 4 4 5 6 7 7 9 14 13 11 12 11 12 11 10 6 5 7 6 6 7 7 7 7 8 8 7 8 9
5 7 4 4 1 3 5 7 14 10 1 0 1 1 1 1 2 2 0 1 1 1 1 2 4 4 7 8 5 4 0 1 1 2 2 1 0 0 1 1 1 1 0 0 3 3 1 1 1 2 5 3 2 1 1 3 4 4 4 4 5 5 5 8 5 4 8 8 11 10 7 9 10 10 8 7 8 8 7 7 8 8 9 9 9 10 10
4 2 4 1 5 4 7 10 7 0 1 1 1 1 1 1 2 1 0 0 0 2 1 2 0 0 1 1 3 3 3 2 1 2 3 1 1 2 2 0 1 0 1 1 2 2 2 1 1 1 6 4 4 4 3 2 3 2 3 5 6 6 5 5 6 5 6 6 5 5 6 8 8 9 8 9 9 8 7 8 8 9 9 9 11 10 8
3 3 5 5 8 9 8 3 0 1 1 0 1 1 1 2 1 2 1 2 2 1 2 2 1 1 3 6 4 3 0 1 2 1 1 0 1 0 1 1 1 1 1 2 1 2 2 0 1 4 6 6 4 4 5 5 3 3 3 4 6 6 5 6 6 4 7 9 7 6 6 8 8 8 8 9 9 9 8 9 9 9 11 10 8 7 8
15 11 3 3 3 1 0 1 1 1 1 0 2 1 1 0 2 2 1 1 1 1 3 0 1 1 1 2 1 0 1 0 0 1 1 0 0 2 2 1 1 0 0 0 1 2 1 1 2 7 7 5 6 7 6 6 5 4 5 5 5 6 8 7 8 7 5 8 8 7 7 8 8 7 7 9 9 8 7 8 10 9 7 8 8 9 9
2 2 1 0 1 2 1 1 1 1 1 1 2 1 0 1 2 1 0 1 1 1 1 3 4 1 4 1 2 0 0 1 3 2 1 0 1 0 1 0 1 2 0 1 1 1 3 3 7 3 2 3 4 5 6 4 4 4 4 4 4 5 6 5 5 5 4 4 6 7 7 7 6 5 6 7 10 10 8 8 8 10 8 9 9 9 9
1 1 1 0 0 1 1 2 1 1 2 2 1 1 2 2 2 1 1 2 1 2 1 1 0 3 4 4 1 1 1 1 1 1 1 0 1 0 1 1 1 1 0 1 1 2 1 3 4 3 3 5 7 7 5 5 6 8 6 4 3 4 6 7 6 6 6 6 6 7 7 7 8 7 6 7 7 9 10 9 7 8 8 9 9 8 7
2 1 1 2 2 1 0 0 0 0 2 2 1 4 2 4 2 3 4 1 1 5 7 3 0 0 3 2 2 2 0 2 1 0 0 2 1 1 1 0 1 0 1 1 0 2 5 6 5 7 7 8 8 7 6 6 5 5 8 7 5 5 6 8 7 7 7 6 5 6 7 7 8 8 7 6 7 8 9 9 9 10 9 9 10 10 8
0 0 0 0 0 2 1 1 1 1 0 0 0 2 2 4 4 6 4 0 3 6 6 2 2 2 1 2 0 2 1 1 1 1 1 1 1 0 1 1 1 0 1 1 2 3 4 6 6 6 5 6 5 6 6 5 5 6 8 7 7 6 6 6 7 7 6 6 6 7 7 7 7 7 7 5 5 7 8 9 10 10 11 12 11 10 9
0 1 0 1 2 1 1 2 0 1 0 1 2 2 5 3 2 6 5 2 5 4 5 4 5 2 1 1 2 3 1 0 1 0 1 1 1 1 1 1 0 1 1 2 4 5 5 6 5 5 6 8 8 9 7 7 6 7 7 8 8 7 7 7 7 6 7 7 7 7 6 6 7 7 8 8 6 5 7 9 10 10 10 9 8 9 10
1 0 0 1 1 0 1 2 4 3 5 6 5 2 3 6 5 6 7 4 5 7 5 3 3 2 2 0 2 1 1 0 2 2 1 1 1 2 1 1 0 1 4 6 5 5 6 6 4 4 5 7 8 9 9 8 9 9 9 9 9 9 7 8 7 7 7 7 7 7 7 6 7 7 6 7 8 6 6 8 10 9 8 10 10 10 9
0 1 0 0 2 2 3 1 1 3 6 7 6 6 4 4 6 6 3 7 6 7 4 1 2 1 1 1 0 1 1 1 2 0 2 1 1 1 2 0 3 4 2 3 5 7 7 5 2 4 7 8 8 9 10 9 9 9 8 8 7 7 8 8 7 6 7 7 7 8 7 7 7 7 8 9 8 6 6 6 7 9 9 9 12 12 12
0 0 2 2 3 3 2 3 1 4 7 6 6 5 4 5 3 6 3 4 8 6 0 2 2 2 1 1 2 1 2 1 2 2 3 3 1 3 2 2 4 7 8 7 6 6 5 3 6 6 6 8 10 11 10 10 10 9 8 8 7 7 7 7 7 7 6 7 7 7 8 8 8 8 7 6 6 7 7 7 8 8 9 9 9 11 11
0 0 1 2 0 1 2 1 1 4 5 5 4 4 2 4 4 6 3 5 5 4 5 3 0 1 2 2 3 2 0 2 1 1 0 2 2 3 3 6 6 7 8 6 7 7 6 6 6 8 9 11 11 9 8 8 8 8 7 8 7 7 7 7 7 7 7 6 6 6 7 6 7 6 6 7 7 7 9 9 7 6 7 9 9 10 12
Wind_Direction
357 355 353 353 352 351 351 352 359 6 346 28 339 310 31 23 214 268 331 325 85 46 26 33 32 205 246 296 297 273 269 264 284 300 306 327 342 11 355 226 159 260 118 27 39 149 194 170 204 182 166 234 205 231 179 160 155 149 177 125 229 128 162 133 299 292 293 279 272 74 190 131 80 301 87 131 166 170 160 165 185 147 151 92 35 143 250
352 354 351 350 351 353 352 351 354 3 9 349 310 20 82 34 328 347 270 358 70 48 111 225 274 263 275 278 267 265 259 273 283 280 286 295 335 98 288 339 64 292 270 164 210 203 81 224 166 219 192 235 227 211 182 172 178 152 214 166 216 156 281 118 37 16 344 353 355 30 16 317 154 174 206 167 129 97 151 110 120 111 215 164 139 227 232
353 353 351 349 349 351 353 350 349 345 360 352 66 73 336 293 240 203 324 22 56 95 299 8 348 337 322 304 279 274 262 236 241 249 283 280 219 75 294 228 298 299 233 235 225 258 180 147 219 147 162 239 231 213 177 189 184 178 176 155 155 170 194 131 177 167 165 190 194 205 198 212 271 156 121 145 126 132 108 141 130 160 261 117 156 139 270
352 352 352 350 347 348 348 345 339 334 333 22 79 239 74 282 97 318 4 358 61 279 233 209 260 293 295 289 258 261 282 300 290 275 224 57 322 156 252 296 211 227 37 8 356 345 212 164 197 176 198 234 198 186 185 178 187 186 158 150 133 162 135 144 157 157 185 208 214 240 126 96 156 192 142 187 143 146 116 119 112 191 196 167 227 155 144
352 352 351 349 346 344 342 342 336 339 347 78 127 200 144 250 110 155 315 342 207 251 255 263 261 253 274 299 337 312 324 302 303 338 345 21 32 293 166 262 18 326 59 14 344 282 15 358 93 181 193 242 233 200 178 184 194 175 164 166 115 102 175 200 144 192 217 215 231 195 169 154 200 153 177 156 152 155 134 150 216 164 104 245 82 167 143
351 351 350 349 346 344 341 339 336 341 336 346 259 298 177 58 257 120 207 123 237 330 286 209 235 244 270 271 301 296 315 317 321 313 350 338 47 65 319 46 242 332 344 67 40 342 27 25 75 324 254 305 280 284 180 180 195 175 182 179 156 151 180 242 126 333 302 15 323 300 88 74 125 94 118 139 125 170 166 199 178 134 156 209 179 174 167
351 350 349 349 346 342 339 335 337 332 318 336 280 -0 278 201 263 243 276 246 260 191 245 208 217 243 207 265 241 262 242 290 310 325 310 9 330 41 5 306 331 350 340 100 346 -0 66 331 291 164 322 184 99 196 354 257 185 177 169 178 176 124 183 188 131 106 19 351 339 295 116 118 59 24 28 3 175 187 152 119 202 161 165 167 162 180 186
350 350 350 349 347 344 339 337 336 332 329 332 224 234 301 243 53 299 333 218 267 255 267 241 205 234 227 230 247 244 293 317 334 329 -0 343 312 104 130 279 318 327 330 31 77 323 163 182 288 281 126 332 63 197 182 198 186 173 178 168 274 148 237 163 113 82 333 347 346 344 139 120 95 24 15 34 80 76 94 110 102 82 55 108 135 142 118
352 350 349 350 349 346 344 342 341 333 357 2 244 289 201 303 218 180 314 316 268 278 287 298 259 259 325 185 277 348 309 332 347 293 233 202 212 206 232 301 324 326 348 353 264 239 207 216 221 247 176 112 248 129 284 141 163 180 166 179 173 142 187 35 81 91 319 348 24 335 100 93 106 75 23 13 65 117 169 122 205 128 142 132 129 130 152
351 351 351 350 350 350 347 347 348 327 87 9 320 287 350 304 253 242 302 265 321 357 302 300 52 295 228 175 258 275 275 294 355 335 301 246 229 224 304 336 5 307 348 314 260 227 200 234 258 236 228 136 82 75 5 211 179 167 166 70 140 137 136 136 101 105 265 243 347 321 342 79 36 352 298 277 294 251 96 356 57 168 144 130 150 205 184
354 353 351 351 350 350 351 350 350 347 144 135 31 291 330 324 326 323 242 266 320 280 330 316 103 236 247 281 301 286 268 282 286 189 275 338 307 180 48 333 340 284 285 249 219 201 225 249 279 68 80 56 86 54 49 47 41 72 147 82 56 129 141 148 74 125 193 217 356 329 93 173 224 284 285 206 209 178 126 106 55 83 69 198 233 152 132
354 355 352 351 350 350 351 352 349 353 169 199 158 250 250 263 289 250 22 45 284 242 -0 279 218 292 292 273 243 258 279 279 260 184 237 279 284 303 284 269 169 296 238 226 39 60 70 62 16 341 205 359 100 63 45 42 13 23 40 127 123 125 104 114 163 113 189 249 30 82 184 228 263 310 290 225 181 111 105 91 63 350 338 279 122 145 159
354 355 354 353 353 349 351 353 354 352 13 183 185 242 261 325 309 292 299 294 267 318 336 301 277 268 268 280 276 256 242 251 258 247 242 247 286 285 217 198 177 233 346 20 49 72 102 200 345 285 305 347 343 31 36 30 17 8 27 40 124 139 120 152 51 81 61 55 69 174 235 261 319 324 -0 97 110 137 99 47 337 328 279 191 148 156 142
353 353 354 354 355 353 350 350 350 351 343 230 211 223 231 233 282 303 319 37 288 234 218 284 287 289 301 283 253 270 299 290 274 209 238 221 221 257 270 216 223 245 314 87 60 79 61 29 55 18 330 359 6 18 341 6 31 24 10 12 21 137 117 117 96 341 144 144 72 76 319 328 318 354 212 191 158 182 160 158 235 231 243 178 142 140 139
351 352 353 353 354 353 353 352 350 346 342 327 235 230 219 198 218 261 319 309 297 285 192 227 283 324 316 303 270 311 343 296 4 283 230 247 202 227 220 239 261 317 357 357 9 35 138 100 42 58 334 56 104 288 321 14 302 32 42 21 59 320 146 198 115 275 120 136 86 28 23 268 258 230 240 213 216 157 173 105 245 285 231 187 146 148 143
349 350 351 351 350 351 353 353 352 347 335 335 259 252 225 190 187 220 269 287 328 320 273 223 277 296 305 292 276 244 305 323 286 299 332 312 249 309 277 245 264 174 77 71 83 94 62 100 174 88 153 178 245 73 323 327 349 314 40 45 67 42 69 83 109 141 96 80 135 193 165 240 208 208 200 204 182 156 145 71 246 228 171 155 149 141 147
346 347 349 348 348 348 350 352 352 351 339 342 323 256 252 181 193 212 232 246 201 236 277 295 286 277 301 309 8 2 18 272 315 20 334 307 290 271 296 307 292 151 129 78 13 65 42 56 67 116 69 157 100 191 185 41 357 329 331 8 44 41 8 41 69 99 157 139 115 202 202 204 294 195 172 194 145 135 61 129 259 189 183 164 154 154 154
344 345 346 346 345 345 346 348 350 352 352 346 305 273 249 196 200 168 227 247 289 283 261 241 137 282 250 211 298 283 318 314 12 27 215 269 319 320 306 359 355 319 119 101 108 68 82 99 122 142 148 245 182 106 186 160 328 253 329 328 13 3 5 47 149 146 134 106 270 341 310 278 268 194 168 150 154 100 160 207 244 183 171 171 160 162 160
341 341 342 343 343 343 344 345 347 349 351 353 334 284 243 221 200 197 266 236 217 266 253 242 242 258 259 228 229 226 121 298 280 321 307 7 220 246 236 269 114 268 1 133 67 103 114 278 117 116 129 286 25 159 170 117 214 96 49 20 38 26 83 9 80 85 143 192 125 213 235 238 167 43 146 178 119 186 213 233 218 152 166 165 161 158 163
338 339 339 340 340 341 342 343 344 346 346 350 351 300 279 237 204 197 198 221 234 259 290 276 205 234 227 269 296 298 321 15 323 122 226 214 285 13 28 22 322 78 338 60 39 203 101 176 207 128 48 122 244 159 59 306 70 163 188 205 135 200 113 174 147 154 72 46 64 23 197 239 145 123 60 299 146 232 207 113 120 161 156 154 158 159 161
337 336 337 337 337 339 340 340 341 342 344 343 350 331 326 285 181 221 234 252 306 315 298 297 255 244 272 268 242 229 174 205 189 59 256 226 238 87 101 191 239 77 222 144 166 241 153 140 197 147 204 130 195 62 189 153 308 247 157 198 183 212 87 207 263 184 140 137 148 198 214 228 186 153 177 193 190 172 146 138 122 140 156 155 151 156 155
335 335 335 335 335 336 336 337 337 338 340 340 341 314 271 252 225 214 220 220 239 217 243 269 285 284 261 239 244 216 215 208 195 171 173 248 283 220 219 170 236 193 218 126 37 26 17 148 69 101 148 98 25 144 156 114 187 259 350 112 36 230 155 181 166 204 130 190 210 242 246 224 269 32 234 159 175 152 166 147 152 151 179 156 149 152 136
334 333 333 333 333 332 333 332 333 333 335 336 338 251 279 302 296 299 278 222 234 256 270 281 291 272 271 242 222 223 218 220 178 163 159 169 316 321 191 20 306 238 270 111 189 162 195 129 193 156 95 159 152 124 29 114 191 230 161 249 180 312 171 148 88 270 247 240 196 240 4 8 3 33 21 123 121 102 121 140 143 179 156 161 155 142 138
332 332 331 332 330 330 329 328 328 329 329 331 329 297 291 249 258 322 247 232 303 304 304 286 13 341 334 325 322 317 173 208 212 206 168 139 96 312 332 250 228 357 322 243 181 129 203 124 193 131 126 203 98 109 153 259 247 185 87 356 322 278 94 59 98 216 98 263 352 43 -0 336 57 89 44 45 59 102 143 142 144 138 131 117 122 133 138
331 330 331 330 329 327 325 326 326 325 324 325 320 267 262 282 228 200 170 94 322 82 304 309 308 242 269 287 258 277 93 130 258 216 116 111 137 163 235 235 185 228 271 304 56 60 45 123 144 102 112 244 123 210 221 111 269 151 97 245 68 268 153 69 75 96 120 223 254 336 -0 96 9 85 125 108 96 85 64 101 117 119 115 122 131 130 132
330 329 329 328 326 324 323 323 323 322 322 322 321 298 272 247 236 153 273 339 144 119 317 313 283 302 300 350 339 302 302 25 32 60 28 322 211 194 241 321 -0 44 105 72 81 121 124 58 80 110 119 218 63 145 197 204 168 144 136 211 196 189 92 182 163 107 297 319 25 127 85 21 25 43 45 111 132 122 116 118 121 122 121 124 127 136 141
326 327 325 325 324 323 322 322 322 322 322 323 315 272 242 258 203 178 174 176 151 343 35 255 267 298 356 320 271 332 347 9 8 64 47 36 36 37 84 115 220 359 74 48 37 117 66 94 95 94 142 198 110 131 148 84 108 127 125 267 99 90 99 159 86 73 225 194 193 175 130 223 196 118 149 132 124 117 119 119 122 129 130 135 132 131 132
324 323 322 322 322 321 321 320 321 323 326 328 315 289 231 228 229 214 242 175 56 209 263 272 299 292 311 273 278 318 323 39 64 57 27 8 24 48 61 72 100 54 11 66 339 20 31 67 49 218 156 302 58 39 34 105 65 49 69 234 171 149 193 134 161 169 222 229 178 152 103 77 112 161 147 130 135 127 129 138 137 136 136 138 137 137 135
321 320 319 319 318 319 318 318 319 322 328 333 312 321 202 227 243 232 221 214 139 128 212 264 296 342 16 275 319 326 315 44 39 56 48 9 15 25 55 56 77 136 88 71 97 105 98 146 175 94 50 195 104 189 38 114 95 182 232 239 205 239 195 193 175 141 231 179 147 166 144 159 155 143 137 133 139 126 120 121 128 137 141 141 137 143 143
320 319 318 316 316 316 315 314 315 320 330 334 344 41 25 316 228 175 210 159 149 117 28 4 4 264 302 325 291 299 311 352 25 28 32 15 8 9 4 37 40 61 91 120 134 84 215 123 317 290 315 2 141 174 81 176 113 238 260 315 288 282 158 164 166 90 188 149 130 133 105 99 109 128 128 133 136 131 133 138 137 133 132 134 131 133 138
319 318 316 315 314 313 311 311 310 316 334 329 16 42 45 21 299 200 140 35 40 90 169 136 239 283 335 266 288 290 294 318 9 359 344 340 312 312 323 82 42 87 41 356 44 85 106 23 24 333 336 43 104 93 158 121 135 314 293 9 309 258 157 114 50 126 124 101 90 82 89 107 109 86 73 111 123 119 115 117 121 127 132 127 129 133 136
318 316 314 314 312 310 307 305 303 310 291 231 183 180 175 190 212 234 311 352 338 45 166 320 336 355 287 313 288 268 261 284 62 5 342 16 352 11 5 56 29 11 111 102 174 58 47 188 104 329 35 338 76 95 78 87 146 217 318 360 337 231 152 109 97 99 111 117 101 77 81 91 153 145 167 167 141 136 129 129 127 125 124 119 120 121 129
316 314 312 310 309 307 304 300 297 293 251 248 258 276 277 277 276 273 270 255 125 190 133 92 216 243 307 260 313 314 328 21 8 28 268 331 309 22 19 2 11 30 356 82 3 83 208 118 153 57 326 16 80 99 90 160 212 245 275 312 334 119 102 89 113 124 140 145 134 142 173 172 186 111 123 133 135 131 130 127 133 122 120 124 124 123 122
315 313 310 308 305 303 300 297 298 293 259 264 294 252 256 266 287 284 140 129 130 323 67 132 299 319 270 312 25 283 40 118 267 57 -0 304 255 66 292 18 351 79 348 75 269 73 348 62 51 301 338 17 38 75 352 266 258 266 20 37 74 85 87 88 100 125 123 51 13 88 128 115 103 109 104 114 118 123 128 127 130 130 134 134 136 137 134
316 311 308 307 303 299 300 303 313 90 209 250 264 250 243 344 352 200 170 238 13 339 15 325 106 -0 339 348 43 273 338 90 309 196 112 285 8 90 336 46 322 66 302 77 46 58 32 351 169 64 287 316 43 11 248 235 248 173 99 104 117 107 87 83 34 50 74 86 99 105 112 120 118 122 131 129 128 135 134 138 140 133 134 140 136 138 140
315 311 309 306 301 299 295 93 155 150 11 258 232 303 314 311 322 277 203 212 153 153 124 251 69 215 156 245 314 282 321 41 346 313 234 313 3 38 92 103 70 90 323 79 132 357 57 320 68 279 309 57 230 190 230 191 184 184 182 167 179 159 172 168 153 130 93 104 115 114 117 127 131 136 134 139 135 141 140 137 142 140 138 140 142 143 138
315 312 310 303 303 87 342 224 287 98 252 274 283 289 285 287 274 69 68 121 273 120 185 172 337 238 169 224 252 277 54 293 335 12 339 32 256 293 43 41 81 307 39 7 15 45 306 54 104 97 326 177 252 242 240 195 174 172 195 187 177 115 95 100 127 118 106 110 117 124 130 127 124 130 133 141 145 142 140 146 155 152 153 152 150 148 148
314 312 318 2 34 32 339 332 45 313 321 302 308 312 355 36 227 333 354 61 270 71 326 73 236 245 350 92 249 248 81 264 57 159 297 234 82 308 9 96 235 55 333 256 256 157 51 38 48 129 266 249 251 262 239 190 201 193 148 151 159 143 137 133 132 119 117 107 107 123 117 129 136 149 142 148 143 146 147 137 132 131 126 130 138 135 131
313 312 23 17 80 235 204 252 330 324 307 270 87 56 281 8 77 315 237 255 19 248 277 147 242 188 154 198 273 290 177 145 30 32 157 275 120 293 13 333 293 68 343 17 292 52 31 339 358 16 292 295 341 291 141 163 173 185 167 167 150 154 148 152 150 142 152 164 168 167 156 160 156 160 147 140 137 130 133 131 130 132 133 134 135 136 138
356 13 0 346 339 256 296 302 328 317 317 50 333 102 242 327 113 261 304 105 299 281 95 232 212 176 189 197 209 287 353 80 263 257 193 295 9 132 266 98 270 91 252 104 255 33 105 273 291 31 293 271 246 254 165 176 173 184 169 160 149 161 164 154 165 158 149 153 159 165 158 150 150 144 151 149 141 135 137 138 141 140 138 144 147 146 154
13 339 355 335 281 318 305 319 320 352 54 56 -0 2 59 313 274 196 81 60 149 237 204 184 352 270 289 86 125 206 287 88 157 125 114 121 246 86 58 214 246 81 324 279 276 63 73 86 -0 218 245 231 208 196 170 154 208 187 179 167 155 158 165 150 136 130 122 123 129 131 141 143 140 141 146 148 141 140 145 143 144 147 143 143 155 162 156
264 261 248 276 290 285 298 304 180 28 10 76 127 264 234 228 311 349 131 147 239 238 308 177 250 218 250 180 200 155 315 186 123 108 100 75 295 130 210 315 7 96 236 236 144 63 75 45 297 285 259 244 226 161 154 179 210 178 175 166 159 152 147 142 137 149 142 145 152 147 145 141 139 137 144 143 142 141 142 142 145 149 156 164 155 138 144
294 286 247 267 304 292 242 342 298 105 141 315 47 337 339 214 227 191 270 267 298 111 263 275 229 194 310 52 43 203 190 231 202 317 67 221 295 54 87 14 54 -0 229 320 66 58 27 241 243 251 252 229 194 175 183 182 181 181 181 174 168 163 152 152 154 158 159 144 148 148 145 140 143 145 146 139 134 130 138 146 152 157 155 149 150 149 147
245 202 187 239 314 281 102 216 275 70 341 52 111 201 248 328 308 24 0 275 267 289 314 30 321 74 258 311 169 290 355 350 52 77 48 315 87 321 55 207 223 246 346 43 43 172 220 221 211 225 253 210 187 183 178 173 164 154 161 199 182 154 148 139 124 123 132 131 135 138 136 133 127 131 139 140 143 143 147 150 157 151 156 151 148 153 153
68 -0 15 9 352 271 72 287 331 118 201 243 150 193 153 176 245 182 201 246 130 262 280 43 101 38 288 275 10 336 111 188 311 99 240 81 59 5 104 258 253 35 82 238 328 319 342 283 274 269 237 194 197 190 181 171 167 166 172 160 167 159 144 145 151 145 147 149 150 139 135 134 133 142 148 152 153 147 146 153 156 148 157 159 154 145 155
56 139 62 77 309 298 132 212 15 336 287 154 196 200 177 253 183 244 260 148 273 307 338 300 188 122 268 253 150 232 340 93 80 234 153 66 100 242 245 256 72 72 10 43 14 235 222 241 246 234 213 198 181 182 177 181 180 160 140 164 186 172 169 154 158 155 157 147 146 140 136 137 141 144 156 161 154 152 154 152 154 159 164 155 157 158 162
5 333 124 99 120 274 87 162 235 193 186 209 217 192 228 265 224 237 256 243 307 285 291 229 222 205 246 279 198 316 21 56 126 268 73 90 180 262 7 102 257 206 142 272 250 255 269 258 244 233 197 182 173 173 177 175 174 168 173 165 164 174 171 160 158 157 159 147 146 141 142 146 150 150 143 144 160 162 154 155 161 161 164 168 169 158 154
117 262 79 129 235 205 180 246 283 289 350 69 281 272 274 267 9 347 315 271 256 318 317 326 337 335 274 282 83 186 223 354 108 279 155 160 39 41 12 35 306 254 185 178 234 224 236 253 248 215 190 176 168 171 177 176 181 177 172 170 173 170 172 166 168 160 149 151 154 155 154 153 149 147 152 160 165 166 159 164 164 167 172 164 155 157 161
171 106 121 213 214 180 245 264 4 337 296 323 280 277 344 10 349 306 295 318 329 312 268 222 211 122 271 186 120 115 248 343 103 234 29 34 106 206 148 218 333 310 266 181 220 221 225 243 245 188 169 164 175 177 182 181 177 177 178 177 180 178 171 174 175 164 156 155 158 158 163 162 153 154 154 152 157 179 179 168 166 171 170 161 162 165 170
120 324 342 162 349 311 267 322 58 329 321 333 2 342 342 4 333 305 320 340 316 313 311 92 90 113 224 117 31 14 245 236 144 48 66 149 197 177 76 331 230 194 257 242 227 245 243 244 170 164 183 178 179 178 181 187 181 180 183 182 174 166 175 174 172 164 161 163 165 167 161 155 163 162 158 167 176 168 161 166 175 175 175 174 169 171 174
293 160 238 173 175 225 31 351 328 316 322 312 317 301 349 328 293 295 344 337 321 334 9 195 212 121 160 40 67 104 239 178 91 166 159 194 193 113 166 201 240 213 230 236 226 246 245 208 181 186 185 191 191 191 186 181 179 183 180 178 174 174 176 176 170 165 168 169 168 155 157 171 178 173 175 164 150 152 166 180 183 183 177 174 173 170 175
63 225 265 299 180 170 180 198 191 226 234 255 285 254 4 315 280 283 314 344 338 15 325 302 63 99 71 177 217 190 108 48 62 87 45 270 156 144 210 199 224 229 227 257 273 254 231 215 206 193 190 192 195 189 179 176 177 177 173 177 174 172 177 180 178 174 170 167 167 171 179 178 175 173 162 155 153 160 175 190 195 188 183 179 183 182 178